Location: ?????????
(53.2086°N, 54.0693°E)
Time: 18:09:22
(UTC+00:00)

Meteor 1-11 Rocket - Pass Details

Date: 08 December 2019
Orbit: 831 x 916 km, 81.2° (Epoch: 20 January)

Event Time Altitude Azimuth Distance (km) Brightness Sun altitude
Rises 12:50:41 0° 348° (NNW) 3,557 6.8 -6.3°
Reaches altitude 10° 12:53:19 10° 356° (N) 2,617 6.0 -6.6°
Maximum altitude 12:58:59 42° 67° (ENE) 1,288 4.2 -7.4°
Drops below altitude 10° 13:04:36 10° 137° (SE) 2,602 6.1 -8.1°
Sets 13:07:12 0° 144° (SE) 3,534 6.8 -8.5°
